Location: Robledo de Chavela
(40.5014°N, 4.2377°W)
Time: 09:22:56
(UTC+00:00)

Resurs 01 Rocket - Pass Details

Date: 18 April 2024
Orbit: 631 x 640 km, 97.8° (Epoch: 20 May)

Event Time Altitude Azimuth Distance (km) Brightness Sun altitude
Exits shadow 21:16:19 - 214° (SW) 2,208 4.3 -23.7°
Reaches altitude 10° 21:16:57 10° 220° (SW) 2,018 4.2 -23.7°
Maximum altitude 21:20:10 20° 267° (W) 1,485 4.0 -24.2°
Drops below altitude 10° 21:23:25 10° 314° (NW) 2,034 5.3 -24.7°
Sets 21:26:10 0° 332° (NNW) 2,949 6.2 -25.0°
